Birmingham, AL

10:01 PM CDT on August 21, 2017 (GMT -0500)
Birmingham International

Weather History for KBHM - January, 2014

Change the Weather History Date:

Friday, January 31, 2014

  Actual Average Record
Temperature  
Mean Temperature 41 °F 45 °F  
Max Temperature 59 °F 55 °F 75 °F (1950)
Min Temperature 23 °F 34 °F 5 °F (1966)
Degree Days  
Heating Degree Days 24 20  
Month to date heating degree days 888 658  
Since 1 July heating degree days 1971 1705  
Moisture  
Dew Point 18 °F    
Average Humidity 48    
Maximum Humidity 81    
Minimum Humidity 15    
Precipitation  
Precipitation 0.00 in 0.17 in 2.66 in (1915)
Month to date precipitation 1.56 4.84  
Year to date precipitation 1.56 4.84  
Snow  
Snow 0.00 in 0.00 in - ()
Month to date snowfall 2.0 0.6  
Since 1 July snowfall 2.0 0.7  
Snow Depth 0.00 in    
Sea Level Pressure  
Sea Level Pressure 30.17 in    
Wind  
Wind Speed 4 mph (SSE)    
Max Wind Speed 9 mph    
Max Gust Speed 15 mph    
Visibility 10 miles    
Events      
T = Trace of Precipitation, MM = Missing Value Source: NWS Daily Summary

Daily Weather History Graph

Daily Weather History Graph

Search for Another Location

Airport or City:

Trip Planner

Search our weather history database for the weather conditions in past years. The results will help you decide how hot, cold, wet, or windy it might be!

Date:

Astronomy

Jan. 31, 2014 Rise Set
Actual Time 6:43 AM CST 5:17 PM CST
Civil Twilight 6:17 AM CST 5:43 PM CST
Nautical Twilight 5:47 AM CST 6:13 PM CST
Astronomical Twilight 5:18 AM CST 6:42 PM CST
Moon 6:58 AM CST (1/31) 6:34 PM CST (1/31)
Length of Visible Light 11h 25m
Length of Day
10h 33m
New Moon, 1% of the Moon is Illuminated
Jan 31
New Moon
Feb 6
First Quarter
Feb 14
Full
Feb 22
Last Quarter
Mar 1
New

Hourly Weather History & Observations

Time (CST) Temp. Windchill Dew Point Humidity Pressure Visibility Wind Dir Wind Speed Gust Speed Precip Events Conditions
12:53 AM 34.0 °F 27.2 °F 19.9 °F 56% 30.18 in 10.0 mi SSE 8.1 mph - N/A   Clear
1:53 AM 33.1 °F 27.7 °F 19.9 °F 59% 30.18 in 10.0 mi SSE 5.8 mph - N/A   Clear
2:53 AM 33.1 °F - 21.0 °F 61% 30.18 in 10.0 mi Calm Calm - N/A   Clear
3:53 AM 30.0 °F - 21.0 °F 69% 30.20 in 10.0 mi Calm Calm - N/A   Clear
4:53 AM 26.1 °F - 19.9 °F 78% 30.21 in 10.0 mi Calm Calm - N/A   Clear
5:53 AM 25.0 °F - 19.0 °F 78% 30.23 in 10.0 mi Calm Calm - N/A   Clear
6:53 AM 25.0 °F - 19.9 °F 81% 30.24 in 10.0 mi Calm Calm - N/A   Scattered Clouds
7:53 AM 34.0 °F - 23.0 °F 64% 30.25 in 10.0 mi Calm Calm - N/A   Mostly Cloudy
8:53 AM 37.9 °F 34.4 °F 21.9 °F 53% 30.25 in 10.0 mi South 4.6 mph - N/A   Mostly Cloudy
9:53 AM 44.1 °F 40.8 °F 19.0 °F 37% 30.24 in 10.0 mi ESE 5.8 mph - N/A   Scattered Clouds
10:53 AM 48.9 °F - 19.0 °F 31% 30.23 in 10.0 mi SE 6.9 mph - N/A   Mostly Cloudy
11:53 AM 53.1 °F - 21.0 °F 29% 30.19 in 10.0 mi Variable 4.6 mph - N/A   Mostly Cloudy
12:53 PM 55.0 °F - 24.1 °F 30% 30.16 in 10.0 mi South 5.8 mph - N/A   Mostly Cloudy
1:53 PM 57.0 °F - 23.0 °F 27% 30.13 in 10.0 mi Variable 3.5 mph - N/A   Scattered Clouds
2:53 PM 59.0 °F - 12.0 °F 16% 30.12 in 10.0 mi South 6.9 mph - N/A   Partly Cloudy
3:53 PM 57.9 °F - 10.9 °F 16% 30.12 in 10.0 mi SSE 4.6 mph - N/A   Partly Cloudy
4:53 PM 55.9 °F - 12.0 °F 18% 30.12 in 10.0 mi SE 5.8 mph - N/A   Clear
5:53 PM 52.0 °F - 12.9 °F 21% 30.13 in 10.0 mi SE 4.6 mph - N/A   Clear
6:53 PM 50.0 °F - 10.0 °F 20% 30.13 in 10.0 mi SSE 4.6 mph - N/A   Clear
7:53 PM 45.0 °F 41.8 °F 15.1 °F 30% 30.14 in 10.0 mi SE 5.8 mph - N/A   Clear
8:53 PM 44.1 °F - 14.0 °F 30% 30.14 in 10.0 mi Calm Calm - N/A   Clear
9:53 PM 37.0 °F - 19.0 °F 48% 30.14 in 10.0 mi Calm Calm - N/A   Clear
10:53 PM 35.1 °F 30.1 °F 21.0 °F 57% 30.13 in 10.0 mi SE 5.8 mph - N/A   Clear
11:53 PM 37.9 °F 34.4 °F 19.9 °F 48% 30.13 in 10.0 mi SE 4.6 mph - N/A   Clear